Meteo Giornale » Osservazioni meteo Italia » Pescara

ore: 01:50 - Osservazioni Meteo Pescara
Lat. 42° 26' N Lon. 14° 12' E Alt. 10 metri s.l.m.

foschia Europe/Rome

2 °C

Foschia

Temp. 24 Ore

1 °C

14 °C

Sud-Ovest

9.3 Km/h

Dew point 1 °C

Umidità 93 %

Visibilità  5 Km

Il sole sorge alle ore 06:33

Il sole tramonta alle ore 17:56

Data e Ora Cielo e Fenomeni T °C DP °C Um. % Pres. hPa Vis. km Vento km/h
Oggi h: 01:50 foschia Foschia 2 1 93 1034 5 SO 9.3
Oggi h: 00:50 foschia Foschia 2 1 93 1034 5 S/SO 9.3
Oggi h: 00:20 sereno Sereno 3 2 93 1034 6 S/SO 9.3
Ieri h: 23:20 sereno Sereno 4 3 93 1034 7 N 3.7
Ieri h: 22:50 sereno Sereno 5 3 86 1034 8 SO 7.4
Ieri h: 22:20 sereno Sereno 5 4 93 1034 8 O/SO 7.4
Ieri h: 21:50 sereno Sereno 6 4 86 1034 8 O/SO 7.4
Ieri h: 21:20 sereno Sereno 6 4 86 1034 8 SO 7.4
Ieri h: 20:50 sereno Sereno 6 5 93 1034 8 N 5.5
Ieri h: 20:20 sereno Sereno 6 4 86 1034 10 S/SO 9.3
Ieri h: 19:50 sereno Sereno 7 5 87 1034 10 SO 7.4
Ieri h: 19:20 sereno Sereno 9 7 87 1034 10 N 1.8
Ieri h: 18:50 sereno Sereno 9 6 81 1033 10 N 3.7
Ieri h: 18:20 sereno Sereno 10 6 76 1033 10 N 3.7
Ieri h: 17:50 sereno Sereno 12 7 71 1033 10 N 3.7
Ieri h: 17:20 sereno Sereno 13 7 66 1033 10 N 5.5
Ieri h: 16:50 sereno Sereno 13 7 66 1033 10 N/NE 9.3
Ieri h: 16:20 sereno Sereno 13 7 66 1033 10 NE 13
Ieri h: 15:20 sereno Sereno 14 7 62 1033 10 N/NE 16.7
Ieri h: 14:50 sereno Sereno 14 7 62 1033 10 NE 14.8
Ieri h: 14:20 sereno Sereno 14 7 62 1033 10 NE 13
Ieri h: 13:50 sereno Sereno 14 6 58 1033 10 NE 14.8
Ieri h: 13:20 sereno Sereno 13 5 58 1033 10 NE 16.7
Ieri h: 12:50 sereno Sereno 14 5 54 1033 10 E/NE 14.8
Ieri h: 12:20 sereno Sereno 14 5 54 1034 10 NE 14.8
Ieri h: 11:50 sereno Sereno 14 4 50 1034 10 N/NE 14.8
Ieri h: 11:20 sereno Sereno 14 4 50 1034 10 NE 14.8
Ieri h: 10:50 sereno Sereno 14 3 47 1034 10 NE 9.3
Ieri h: 10:20 sereno Sereno 13 2 47 1034 10 N 3.7
Ieri h: 09:50 sereno Sereno 11 1 50 1034 10 N 5.5
Ieri h: 09:20 sereno Sereno 10 1 53 1034 10 O/SO 9.3
Ieri h: 08:50 sereno Sereno 8 1 61 1034 10 O/SO 11.1
Ieri h: 08:20 sereno Sereno 6 1 70 1033 10 O/SO 13
Ieri h: 07:50 sereno Sereno 4 -0 75 1033 10 SO 11.1
Ieri h: 07:20 sereno Sereno 2 -1 80 1033 10 O/SO 7.4
Ieri h: 06:50 sereno Sereno 2 -1 80 1033 10 O/SO 9.3
Ieri h: 05:50 sereno Sereno 2 -1 80 1032 10 O/SO 7.4
Ieri h: 04:20 sereno Sereno 2 -0 86 1032 10 SO 9.3
Ieri h: 02:50 sereno Sereno 2 -0 86 1032 10 SO 9.3
Ieri h: 02:20 sereno Sereno 1 -0 93 1032 10 SO 9.3